Current Version              Previous Version:    01  02  03  04  05  06  07  08  09  10  11  12  13  14  15  16  17  18  19  20  21  22  23  24  25  26  27  28  29  30  
   31  32  33  34  35  36  37  38  39  40  41  42  43  44  45  46  47  48  49  50  51  52  53  54  55  56  57  58  59  60  

[Printable]
173
ASUS44 KEWX 270510
RWRTX
SOUTH TEXAS REGIONAL WEATHER ROUNDUP
NATIONAL WEATHER SERVICE AUSTIN/SAN ANTONIO TX
1100 PM CST WED NOV 26 2014

NOTE: "FAIR" INDICATED FEW OR NO CLOUDS BELOW 12,000 FEET WITH NO
SIGNIFICANT WEATHER AND/OR OBSTRUCTIONS TO VISIBILITY.

* - THESE STATIONS ARE NOT NWS OR FAA STATIONS...AND ARE NOT SUBJECT
    TO NWS AND FAA QUALITY CONTROL.

TXZ171-172-183>190-270600-
TEXAS HILL COUNTRY AND EDWARDS PLATEAU

CITY           SKY/WX    TMP DP  RH WIND       PRES   REMARKS
JUNCTION       CLEAR     44  31  60 CALM      30.36R
*LLANO         CLEAR     48  36  61 CALM      30.39R
BURNET         CLEAR     50  34  54 N6        30.37R WCI  48
*HORSESHOE BAY CLEAR     41  35  79 CALM      30.36R
*KERRVILLE     CLEAR     42  33  69 CALM      30.35R
*FREDERICKSBRG CLEAR     41  34  75 CALM      30.35R
*ROCKSPRINGS   CLEAR     50  30  46 MISG      30.36R
*BOERNE STAGE  CLEAR     41  32  70 CALM      30.35R
*CASTROVILLE   CLEAR     47  36  65 CALM      30.34R
HONDO          CLEAR     44  32  62 N8        30.33R WCI  39
*UVALDE        CLEAR     50  29  44 NE3       30.32R
DEL RIO        CLEAR     54  33  45 NE7       30.30R
LAUGHLIN AFB   CLEAR     46  35  66 N8        30.30R WCI  42
CARRIZO SPRGS  CLEAR     45  36  70 CALM      30.28R
$$

TXZ173-191>194-202-209-217>225-228-270600-
CENTRAL AND SOUTH CENTRAL TEXAS

CITY           SKY/WX    TMP DP  RH WIND       PRES   REMARKS
GEORGETOWN     CLEAR     52  34  50 N8        30.35R
AUSTIN/BERGSTM CLEAR     46  37  71 CALM      30.34R
AUSTIN/MABRY   CLEAR     52  35  52 N3        30.34R
*AUSTIN/EXEC   CLEAR     48  36  61 N8        30.35R WCI  45
*LAGO VISTA    CLEAR     53  32  44 NE12      30.35R
SAN MARCOS     CLEAR     52  36  54 N9        30.35R
NEW BRAUNFELS  CLEAR     56  36  47 NE10      30.32R
RANDOLPH AFB   CLEAR     53  36  51 N8        30.33R
PT SAN ANTONIO CLEAR     46  39  77 NW1       30.30R
SAN ANTONIO    CLEAR     57  35  43 N3        30.32R
STINSON FIELD  CLEAR     54  38  54 N6        30.30R
*PLEASANTON    CLEAR     46  36  67 CALM      30.30R
*LA GRANGE     CLEAR     50  43  77 CALM      30.31R
*GIDDINGS      CLEAR     55  34  44 N5        30.37R
*GONZALES      CLEAR     51  39  64 CALM      30.31R
$$

TXZ163>164-176>182-195>201-210>213-226-227-235-270600-
SOUTHEAST TEXAS

CITY           SKY/WX    TMP DP  RH WIND       PRES   REMARKS
COLLEGE STN    CLEAR     52  34  50 N5        30.33R
*BRYAN         CLEAR     42  37  81 CALM      30.34R
*CALDWELL      CLEAR     54  32  43 N6        30.36R
*CROCKETT      CLEAR     45  41  87 CALM      30.38R
*BRENHAM       CLEAR     50  40  68 CALM      30.33R
HUNTSVILLE     CLEAR     47  38  71 CALM      30.32R
CONROE         CLEAR     43  40  89 CALM      30.32R
HOUSTON BUSH   CLEAR     51  43  74 CALM      30.32R
HOUSTON HOBBY  CLEAR     52  43  71 W3        30.31R
*HOUSTON SW AP CLEAR     45  44  97 CALM      30.32R
PEARLAND       CLEAR     50  43  77 CALM      30.32R
HOUSTON HOOKS  CLEAR     47  42  83 CALM      30.32R
ELLINGTON FLD  CLEAR     55  43  62 CALM      30.32R
SUGAR LAND     CLEAR     47  43  86 CALM      30.31R
*HOUSTON EXEC  CLEAR     50  41  71 CALM      30.33R
*CLEVELAND MUN CLEAR     43  43  99 CALM      30.32R
*WHARTON       CLEAR     47  45  93 CALM      30.32R
*COLUMBUS      FAIR      46  43  88 W3        30.32R
$$

TXZ214>216-236>238-270600-
THE UPPER TEXAS COAST

CITY           SKY/WX    TMP DP  RH WIND       PRES   REMARKS
*ORANGE        CLEAR     55  43  65 W3        30.31R
PORT ARTHUR    CLEAR     50  44  80 W6        30.30R WCI  48
GALVESTON      CLEAR     56  51  84 SW3       30.32R
ANGLETON       CLEAR     46  46 100 CALM      30.31R
*BAY CITY        N/A     49  49 100 CALM      30.30S
PALACIOS       CLEAR     51  49  92 CALM      30.31R FOG
$$

TXZ229>234-239>247-270600-
TEXAS COASTAL BEND AND RIO GRANDE PLAINS

CITY           SKY/WX    TMP DP  RH WIND       PRES   REMARKS
VICTORIA       CLEAR     48  44  86 CALM      30.31R
*BEEVILLE      CLEAR     51  40  67 CALM      30.30R
ROCKPORT       CLEAR     61  55  81 S7        30.30R
*PORT ARANSAS  CLEAR     61  57  87 S8        30.30R
*PORT LAVACA   CLEAR     52  50  93 CALM      30.31R
*INGLESIDE     CLEAR     59  53  82 S7        30.30R
CORPUS CHRISTI CLEAR     54  51  90 S7        30.30R
CORPUS NAS     CLEAR     61  56  83 S9        30.30R
*ROBSTOWN      NOT AVBL
ALICE          CLEAR     51  41  68 SW6       30.30R
KINGSVILLE NAS CLEAR     51  48  89 S7        30.31R
COTULLA        CLEAR     53  33  46 SE6       30.29R
*FAITH RANCH   CLEAR     48  32  53 SE6       30.29R WCI  46
LAREDO         CLEAR     55  38  52 E6        30.31R
$$

TXZ248>255-270600-
DEEP SOUTH TEXAS

CITY           SKY/WX    TMP DP  RH WIND       PRES   REMARKS
BROWNSVILLE    CLEAR     54  53  97 SE3       30.32R
PORT ISABEL    CLEAR     55  53  93 S6        30.31R
*SOUTH PADRE   CLEAR    N/A N/A N/A CALM      30.31S
HARLINGEN      CLEAR     50  48  93 S6        30.31R WCI  48
*HEBBRONVILLE  CLEAR     54  37  52 S5        30.31R
MCALLEN        CLEAR     53  49  86 SE5       30.32R
*WESLACO       CLEAR     54  50  85 S5        30.31S
FALFURRIAS     CLEAR     54  44  69 S7        30.30S
EDINBURG       CLEAR     54  48  82 CALM      30.32R
*ZAPATA        CLEAR     45  41  85 CALM      30.28S
$$

TXZ213>215-236>238-242>244-246-247-251-254-255-270600-
CMAN STATIONS

STATION/POSITION TIME  TEMP    WIND        PRES    WAVE
                       AIR SEA DIR/SP/G            HT/PER
                 (UTC) (F)     (DEG/KT/KT) (MB)    (FT/S)
SABINE PASS      0500   56 59  260/  6/ 11 1025.8
SEA RIM ST PARK  0500   53     260/  7/  8 1026.7
NORTH JETTY/GLS  0500   62 60  280/  8/ 10   N/A
EAGLE POINT      0500   56 59  260/  5/  6 1026.2
MORGANS POINT    0500   60     250/  5/  8 1026.2
MISSION/ARANSAS  0400   63     180/ 10     1027.0
PORT O`CONNOR    0500          200/  6/  6   N/A
PORT ARANSAS     0500   64 62  190/ 11/ 12 1026.7
MALAQUITE BEACH  0500   64 63  180/ 13/ 14 1025.5
BAFFIN BAY       0500   62 73  190/ 10/ 11 1026.2
PORT ISABEL      0500   62 63  160/  4/  5 1026.5
$$

GMZ080-GMZ150>470-270600-
OFFSHORE BUOY REPORTS

STATION/POSITION TIME  TEMP    WIND        PRES    WAVE
                       AIR SEA DIR/SP/G            HT/PER
                 (UTC) (F)     (DEG/KT/KT) (MB)    (FT/S)
20 E GALVESTON   0500   62 61  240/  8/  8 1025.9    2/ 5
90 E PT ARANSAS  0500   70 72  230/ 10/ 12 1026.9    3/ 6
35 NE PT MANSFLD 0500   70 73  190/ 12/ 14 1026.2    3/ 8
200 E PT ISABEL  0500   68 74   CALM  /  2 1027.4    2/ 6
$$



254
ASUS44 KLUB 270510
RWRTX
WEST TEXAS WEATHER ROUNDUP
NATIONAL WEATHER SERVICE LUBBOCK TX
1100 PM CST WED NOV 26 2014

NOTE: "FAIR" INDICATES FEW OR NO CLOUDS BELOW 12,000 FEET WITH NO
SIGNIFICANT WEATHER AND/OR OBSTRUCTIONS TO VISIBILITY.

TXZ004-006>008-010-012-014-016-OKZ002-270600-
TEXAS PANHANDLE/OKLAHOMA PANHANDLE

CITY           SKY/WX    TMP DP  RH WIND       PRES   REMARKS
AMARILLO       PTCLDY    34  22  61 E8        30.40R WCI  27
BORGER         CLEAR     37  20  50 E3        30.41R
CANADIAN       PTCLDY    27  21  77 SW3       30.42R
DALHART        CLEAR     31  20  63 E6        30.39R WCI  25
DUMAS            N/A     30  19  62 SE5       30.39R WCI  25
GUYMON         PTCLDY    32  18  56 SE3       30.39R
HEREFORD       CLEAR     32  25  76 CALM      30.39S
PAMPA          CLEAR     32  20  61 SE6       30.41R WCI  26
PERRYTON       CLEAR     28  17  63 SE5       30.40S WCI  23
$$

TXZ026-029-035-045-048-270600-
SOUTHERN PANHANDLE/SOUTH PLAINS/ROLLING PLAINS

CITY           SKY/WX    TMP DP  RH WIND       PRES   REMARKS
CHILDRESS      CLEAR     42  23  46 NE8       30.42R
SEMINOLE       CLEAR     39  30  68 E3        30.38R
LUBBOCK        CLEAR     38  24  57 E8        30.38R WCI  32
PLAINVIEW      CLEAR     37  24  59 E5        30.38R WCI  34
SNYDER         CLEAR     42  33  72 E7        30.40R
$$

TXZ052-054-060>062-072-078-127-140-154-169-270600-
PERMIAN BASIN/CONCHO VALLEY/BIG COUNTRY/EDWARDS PLATEAU

CITY           SKY/WX    TMP DP  RH WIND       PRES   REMARKS
ABILENE        CLEAR     45  34  65 E6        30.40R
BIG SPRING     CLEAR     46  32  58 E8        30.39R
BRADY          CLEAR     46  34  61 NE10      30.35S
BROWNWOOD      PTCLDY    41  36  81 N5        30.39R
JUNCTION       CLEAR     44  31  60 CALM      30.36R
MIDLAND        CLEAR     47  32  56 E12       30.36R
ODESSA         CLEAR     43  30  60 E8        30.36R
SAN ANGELO     CLEAR     42  33  70 E3        30.37R
SONORA         CLEAR     43  30  61 CALM      30.39S
SWEETWATER     CLEAR     46  34  62 SE3       30.42R
WINK           CLEAR     41  25  53 NE3       30.34R
$$

TXZ055-058-074-075-080-082-270600-
FAR WEST/SOUTHWEST MOUNTAINS/TRANS PECOS

CITY           SKY/WX    TMP DP  RH WIND       PRES   REMARKS
ALPINE         CLEAR     40  23  49 SW9       30.41S WCI  34
DRYDEN           N/A     51  26  37 N9        30.32R
EL PASO        PTCLDY    49  19  30 CALM      30.33R
FORT STOCKTON  CLEAR     49  24  37 SE9       30.34R
MARFA          CLEAR     34  19  55 N6        30.38S WCI  29
PECOS          CLEAR     46  25  43 CALM      30.34R
PRESIDIO       FAIR      52  22  31 N10       30.32R
$$

TXZ014-016-019-021>030-083-270600
TEXAS TECH WEST TEXAS MESONET/TEXAS PANHANDLE/NORTHERN SOUTH PLAINS

CITY           SKY/WX    TMP DP  RH WIND       PRES   REMARKS
ABERNATHY 5ENE   N/A     33  25  73 E6        30.40R WCI  27
AMARILLO 9NNE    N/A     34  23  65 S1        30.39S
AMARILLO 7SSE    N/A     32  22  67 E5        30.40R WCI  27
AMHERST 1NE      N/A     32  24  71 E5        30.39R WCI  28
BOOTLEG 11WNW    N/A     30  22  70 SE8       30.40R WCI  23
CANADIAN 6E      N/A     31  16  54 E1        30.41R
CAPROCK CYN SP   N/A     37  24  59 N1        30.42R
CHILDRESS 2NNE   N/A     38  24  55 NE7       30.41R WCI  33
CLARENDON 2WSW   N/A     31  22  69 CALM      30.40S
CLAUDE 12SW      N/A     33  21  63 E8        30.39S WCI  25
DIMMITT 2NE      N/A     33  22  63 E7        30.39R WCI  27
FLOYDADA 2NNE    N/A     31  23  73 NE7       30.39R WCI  24
FRIONA 2NE       N/A     31  22  69 E5        30.40R WCI  27
GOODLETT 3W      N/A     36  25  64 N6        30.41R WCI  31
HART 3N          N/A     30  23  75 E7        30.39R WCI  23
HEREFORD 2NW     N/A     31  22  68 SE2       30.39R
MCLEAN 1E        N/A     35  19  51 NE7       30.39R WCI  30
MEMPHIS 1NE      N/A     34  24  66 N2        30.41S
MULESHOE 2SSW    N/A     27  22  82 E5        30.39R WCI  21
OLTON 6S         N/A     33  24  68 E6        30.39R WCI  28
PALO DURO SP     N/A     38  22  51 SE5       30.40S WCI  35
PAMPA 2E         N/A     31  20  62 E5        30.40R WCI  27
PLAINVIEW 1S     N/A     37  24  60 E5        30.39R WCI  33
SILVERTON 7ESE   N/A     35  22  59 E9        30.41R WCI  27
TULIA 2ENE       N/A     34  25  71 E5        30.39S WCI  29
TURKEY 2WSW      N/A     40  24  53 NE2       30.41R
UMBARGER 3NNE    N/A     29  20  70 SE7       30.39S WCI  22
$$

TXZ033>036-039>041-045>048-270600
TEXAS TECH WEST TEXAS MESONET/SOUTH PLAINS

CITY           SKY/WX    TMP DP  RH WIND       PRES   REMARKS
AIKEN 3WSW       N/A     33  23  66 E9        30.40R WCI  25
ANDREWS 2NE      N/A     41  29  62 E6        30.37R
ANTON 6SSW       N/A     35  26  69 E6        30.39R WCI  30
BROWNFIELD 2S    N/A     38  29  69 E7        30.38R WCI  32
DENVR CTY 7WNW   N/A     37  27  67 E7        30.36R WCI  31
GAIL 2ESE        N/A     41  32  70 E5        30.38R
LAMESA 2SE       N/A     39  31  71 E2        30.39R
LEVELLAND 4S     N/A     36  25  64 E6        30.38R WCI  31
LUBBOCK 3WNW     N/A     39  26  59 E5        30.39R
MORTON 1ENE      N/A     34  26  71 E6        30.37R WCI  29
ODONNELL 1N      N/A     38  31  75 E3        30.38R
PLAINS 3N        N/A     41  28  58 E10       30.36R
RALLS 1SE        N/A     34  22  62 E5        30.40R WCI  30
REESE CENTER     N/A     36  26  65 E6        30.39R WCI  31
SEAGRAVES 1SW    N/A     39  29  66 E3        30.37R
SEMINOLE 2NNE    N/A     38  29  70 E6        30.37R WCI  34
SLATON 2NE       N/A     40  26  56 NE1       30.40R
SNYDER 3E        N/A     42  34  73 E9        30.38R
SUNDOWN 8SW      N/A     36  26  67 E8        30.37R WCI  30
TAHOKA 3NNE      N/A     37  27  67 E6        30.38R WCI  32
WOLFFORTH 6SSW   N/A     34  26  72 E7        30.39R WCI  27
$$

TXZ031-032-036>038-042>044-270600-
TEXAS TECH WEST TEXAS MESONET/ROLLING PLAINS

CITY           SKY/WX    TMP DP  RH WIND       PRES   REMARKS
ASPERMONT 3NE    N/A     36  32  85 NE1       30.41R
FLUVANNA 3WNW    N/A     40  32  72 E6        30.38R
GRAHAM 5SSW      N/A     45  29  53 E6        30.38R
GUTHRIE 10WSW    N/A     39  26  59 N5        30.40R
HASKELL 1NW      N/A     41  33  73 E3        30.40R
JAYTON 1SSE      N/A     43  30  61 NE6       30.40R
KNOX CITY 3NW    N/A     34  31  87 CALM      30.42R
LK A HENRY 1NW   N/A     41  30  66 NE5       30.40R
NORTHFIELD 1S    N/A     40  24  54 NE5       30.41S
ODELL 4ENE       N/A     37  28  69 NE8       30.42S WCI  31
PADUCAH 10SW     N/A     39  25  58 N3        30.41R
POST 1NE         N/A     39  27  61 N3        30.39R
RRING SPRGS 3N   N/A     40  25  54 NE7       30.41R
SEYMOUR 3NW      N/A     38  32  79 NE6       30.41R WCI  33
SPUR 1W          N/A     34  25  70 N2        30.39R
WEINERT 2NNE     N/A     36  31  81 N1        30.41R
WHITE RVR 6NE    N/A     41  23  48 NE7       30.39R
$$

TXZ052-054-060>062-072-078-127-140-154-169-270600-
TEXAS TECH WEST TEXAS MESONET/PERMIAN BASIN/
CONCHO VALLEY/BIG COUNTRY/EDWARDS PLATEAU

CITY           SKY/WX    TMP DP  RH WIND       PRES   REMARKS
COYANOSA 2N      N/A     38  24  56 E5        30.34R WCI  35
JUNCTION 1SSW    N/A     35  27  73 CALM      30.37R
MERTZON 3NNE     N/A     36  30  79 CALM      30.38S
SAN ANGELO 7NW   N/A     47  33  60 NE5       30.37R
STRLNG CT 4WSW   N/A     35  29  81 CALM      30.39R
ST LAWRNCE 5SW   N/A     42  29  61 NE8       30.37R
SWEETWATR 11SW   N/A     39  33  76 E8        30.40R WCI  34
WALL 1E          N/A     41  32  70 E3        30.38R
$$

TXZ055-058-074-075-080-082-270600-
TEXAS TECH WEST TEXAS MESONET/FAR WEST/SOUTHWEST MOUNTAINS/TRANS PECOS

CITY           SKY/WX    TMP DP  RH WIND       PRES   REMARKS
PRSMN GAP BBNP   N/A     47  21  35 N7        30.33R
GUADLPE MTN NP   N/A     43  20  40 CALM      30.38S
$$